Beaufort, NC

10:05 AM EST on December 06, 2019 (GMT -0500)
Smith

Weather History for KMRH - June, 2019

Change the Weather History Date:

Wednesday, June 5, 2019

  Actual Average Record
Temperature  
Mean Temperature 78 °F -  
Max Temperature 84 °F 81 °F 90 °F (1981)
Min Temperature 75 °F 64 °F 56 °F (1958)
Cooling Degree Days 14    
Growing Degree Days 28 (Base 50)    
Moisture  
Dew Point 68 °F    
Average Humidity 69    
Maximum Humidity 81    
Minimum Humidity 60    
Precipitation  
Precipitation 0.00 in - - ()
Sea Level Pressure  
Sea Level Pressure 30.04 in    
Wind  
Wind Speed 14 mph (SSW)    
Max Wind Speed 22 mph    
Max Gust Speed 30 mph    
Visibility 10 miles    
Events Rain    
Averages and records for this station are not official NWS values.
T = Trace of Precipitation, MM = Missing Value Source: NWS Daily Summary

Daily Weather History Graph

Daily Weather History Graph

Search for Another Location

Airport or City:

Astronomy

Jun. 05, 2019 Rise Set
Actual Time 5:53 AM EDT 8:16 PM EDT
Civil Twilight 5:24 AM EDT 8:46 PM EDT
Nautical Twilight 4:48 AM EDT 9:22 PM EDT
Astronomical Twilight 4:09 AM EDT 10:01 PM EDT
Moon 7:56 AM EDT (6/5) 10:41 PM EDT (6/5)
Length of Visible Light 15h 21m
Length of Day
14h 23m
Waxing Crescent, 6% of the Moon is Illuminated
Jun 5
Waxing Crescent
Jun 10
First Quarter
Jun 17
Full
Jun 25
Last Quarter
Jul 2
New

Hourly Weather History & Observations

Time (EDT) Temp. Heat Index Dew Point Humidity Pressure Visibility Wind Dir Wind Speed Gust Speed Precip Events Conditions
12:58 AM 75.9 °F - 63.0 °F 64% 30.12 in 10.0 mi SSW 12.7 mph - N/A   Partly Cloudy
1:58 AM 75.9 °F - 63.0 °F 64% 30.11 in 10.0 mi SSW 10.4 mph - N/A   Partly Cloudy
2:58 AM 75.0 °F - 63.0 °F 66% 30.09 in 10.0 mi South 8.1 mph - N/A   Clear
3:58 AM 75.0 °F - 64.0 °F 69% 30.09 in 10.0 mi SSW 9.2 mph - N/A   Clear
4:58 AM 75.9 °F - 64.9 °F 69% 30.10 in 10.0 mi SSW 10.4 mph - N/A   Clear
5:58 AM 75.9 °F - 66.0 °F 71% 30.11 in 10.0 mi SSW 10.4 mph - N/A   Clear
6:58 AM 77.0 °F - 66.9 °F 71% 30.11 in 10.0 mi South 10.4 mph - N/A   Clear
7:58 AM 79.0 °F - 68.0 °F 69% 30.11 in 10.0 mi South 13.8 mph - N/A   Partly Cloudy
8:58 AM 80.1 °F 82.7 °F 68.0 °F 67% 30.11 in 10.0 mi South 13.8 mph - N/A   Clear
9:58 AM 81.0 °F 83.8 °F 68.0 °F 65% 30.11 in 10.0 mi South 17.3 mph - N/A   Partly Cloudy
10:58 AM 82.0 °F 84.9 °F 68.0 °F 62% 30.11 in 10.0 mi SSW 18.4 mph - N/A   Scattered Clouds
11:58 AM 82.9 °F 85.8 °F 68.0 °F 60% 30.10 in 10.0 mi South 17.3 mph 24.2 mph N/A   Mostly Cloudy
12:58 PM 82.9 °F 85.8 °F 68.0 °F 60% 30.07 in 10.0 mi South 20.7 mph 27.6 mph N/A   Partly Cloudy
1:58 PM 82.9 °F 85.8 °F 68.0 °F 60% 30.06 in 10.0 mi South 20.7 mph 27.6 mph N/A   Mostly Cloudy
2:58 PM 82.0 °F 84.5 °F 66.9 °F 60% 30.04 in 10.0 mi South 16.1 mph 27.6 mph N/A   Mostly Cloudy
3:58 PM 81.0 °F 83.3 °F 66.9 °F 62% 30.01 in 10.0 mi South 21.9 mph 26.5 mph N/A   Mostly Cloudy
4:58 PM 81.0 °F 83.3 °F 66.9 °F 62% 29.99 in 10.0 mi South 20.7 mph 29.9 mph N/A   Clear
5:58 PM 79.0 °F - 66.9 °F 66% 29.99 in 10.0 mi SSW 20.7 mph 28.8 mph N/A   Partly Cloudy
6:58 PM 79.0 °F - 68.0 °F 69% 29.99 in 10.0 mi SSW 18.4 mph - N/A   Partly Cloudy
7:17 PM 79.0 °F - 69.1 °F 72% 29.99 in 10.0 mi SSW 17.3 mph 26.5 mph N/A   Mostly Cloudy
7:43 PM 78.1 °F - 69.1 °F 74% 29.97 in 10.0 mi SSW 18.4 mph 26.5 mph N/A   Scattered Clouds
7:58 PM 78.1 °F - 69.1 °F 74% 29.98 in 10.0 mi SSW 18.4 mph - N/A   Clear
8:58 PM 78.1 °F - 70.0 °F 76% 29.98 in 10.0 mi SSW 18.4 mph - N/A   Clear
9:27 PM 78.1 °F - 71.1 °F 79% 29.98 in 10.0 mi SW 18.4 mph - N/A   Mostly Cloudy
9:36 PM 78.1 °F - 71.1 °F 79% 29.98 in 10.0 mi SSW 17.3 mph 24.2 mph N/A   Scattered Clouds
9:58 PM 78.1 °F - 71.1 °F 79% 29.98 in 10.0 mi SSW 13.8 mph - N/A   Clear
10:58 PM 78.1 °F - 71.1 °F 79% 29.98 in 10.0 mi SSW 15.0 mph - N/A   Partly Cloudy
11:17 PM 78.1 °F - 71.1 °F 79% 29.98 in 10.0 mi SSW 16.1 mph - 0.00 in Rain Light Rain
11:58 PM 78.1 °F - 72.0 °F 81% 29.97 in 10.0 mi SSW 17.3 mph - 0.00 in   Overcast